Preview of NWS' New Version of Forecast
This preview is not operational and should not be used for support decisions.

Regional Weather Roundup (RWR)

Issued by Gray - Portland, ME (GYX)

                            
000
ASUS41 KGYX 201810
RWRGYX
WEATHER ROUNDUP FOR MAINE AND NEW HAMPSHIRE
NATIONAL WEATHER SERVICE GRAY ME
200 PM EDT TUE AUG 20 2019

MEZ002-005-006-010-012-015-018-020-021-024-026-027-029-201900-
MAINE
  
CITY           SKY/WX    TMP DP  RH WIND       PRES   REMARKS
PORTLAND       FAIR      83  54  36 CALM      30.04F                  
6HR MIN TEMP:  72; 6HR MAX TEMP:  85;                                

SANFORD        FAIR      84  59  42 SW5       30.05F                  
BAR HARBOR     FAIR      80  59  48 N6        30.02F                  
WISCASSET      FAIR      83  52  34 VRB3      30.05F                  
6HR MIN TEMP:  72; 6HR MAX TEMP:  83;                                

ROCKLAND       FAIR      79  60  52 SE7       30.03F                  
FRYEBURG       FAIR      83  59  44 VRB5      30.04F                  
6HR MIN TEMP:  69; 6HR MAX TEMP:  84;                                

LEWISTONAUBURN FAIR      80  56  43 SW5       30.05F                  
AUGUSTA        FAIR      80  53  39 VRB3      30.05F                  
6HR MIN TEMP:  70; 6HR MAX TEMP:  80;                                

WATERVILLE     FAIR      80  55  42 VRB3      30.02F                  
BANGOR         FAIR      80  54  40 W7        30.02F                  
6HR MIN TEMP:  69; 6HR MAX TEMP:  81;                                

GREENVILLE     NOT AVBL                                               
MILLINOCKET    FAIR      79  50  36 VRB3      30.01F                  
6HR MIN TEMP:  69; 6HR MAX TEMP:  80;                                

HOULTON        FAIR      80  51  36 VRB6      29.97F                  
6HR MIN TEMP:  67; 6HR MAX TEMP:  80;                                

PRESQUE ISLE   FAIR      79  50  36 W9G18     29.97F                  
6HR MIN TEMP:  63; 6HR MAX TEMP:  79;                                

FRENCHVILLE    FAIR      76  53  44 VRB6      29.95F                  
6HR MIN TEMP:  62; 6HR MAX TEMP:  77;                                

CARIBOU        FAIR      80  50  34 W8        29.95F                  
6HR MIN TEMP:  65; 6HR MAX TEMP:  81;                                

$$

NHZ002-005-008-009-011-012-014-201900-
NEW HAMPSHIRE
  
CITY           SKY/WX    TMP DP  RH WIND       PRES   REMARKS
ROCHESTER      FAIR      84  57  39 VRB5      30.04F                  
6HR MIN TEMP:  70; 6HR MAX TEMP:  85;                                

NASHUA         FAIR      85  54  34 W3        30.05F                  
MANCHESTER     FAIR      86  52  30 VRB5      30.03F                  
6HR MIN TEMP:  72; 6HR MAX TEMP:  88;                                

CONCORD        FAIR      84  52  33 W8        30.05F                  
6HR MIN TEMP:  68; 6HR MAX TEMP:  85;                                

LACONIA        FAIR      81  55  40 VRB7      30.06F                  
PLYMOUTH       FAIR      81  48  31 NW7       30.05F                  
BERLIN         FAIR      81  51  35 CALM      30.06F                  
6HR MIN TEMP:  66; 6HR MAX TEMP:  81;                                

WHITEFIELD     FAIR      80  44  27 CALM      30.07F                  
6HR MIN TEMP:  62; 6HR MAX TEMP:  80;                                

JAFFREY        FAIR      82  55  39 VRB7      30.10F                  
6HR MIN TEMP:  64; 6HR MAX TEMP:  82;                                

KEENE          FAIR      82  57  42 S7        30.07F                  
LEBANON        FAIR      85  56  37 SE5       30.06F                  
6HR MIN TEMP:  64; 6HR MAX TEMP:  85;                                

MT WASHINGTON  MOSUNNY   59  48  67 N2          N/A                   
6HR MIN TEMP:  45; 6HR MAX TEMP:  58;                                

$$

VTZ005-007-008-201900-
VERMONT
  
CITY           SKY/WX    TMP DP  RH WIND       PRES   REMARKS
ST JOHNSBURY     N/A     78  52  40 MISG      30.04F                  
MONTPELIER     FAIR      79  52  38 E5        30.11F                  
BURLINGTON     FAIR      82  53  36 SW7       30.05F                  
$$

MAZ007-012-024-CTZ003-RIZ002-NYZ038-NYZ072-201900-
SOUTHERN NEW ENGLAND AND NY
  
CITY           SKY/WX    TMP DP  RH WIND       PRES   REMARKS
BOSTON         FAIR      83  59  44 E13       30.05F                  
WORCESTER      FAIR      80  58  46 VRB6      30.10F                  
NANTUCKET      FAIR      83  62  49 CALM      30.07S                  
PROVIDENCE     FAIR      86  53  32 W5        30.06F                  
HARTFORD       FAIR      86  53  32 CALM      30.07F                  
ALBANY         FAIR      84  55  36 CALM      30.08F                  
NEW YORK CITY  PTSUNNY   86  63  45 NE7       30.07F                  
$$

ANZ081-ANZ082-ANZ150-NHZ014-MEZ023>029-201900-
COASTAL MARINE OBSERVATIONS
  
STATION/POSITION TIME  TEMP    WIND        PRES    WAVE
                       AIR SEA DIR/SP/G            HT/PER
                 (UTC) (F)     (DEG/KT/KT) (MB)    (FT/S)
MATINICUS ROCK   1750   73                 1016.9F
ISLE OF SHOALS   1700   76     140/  2/  2 1017.3F
JEFFREYS LEDGE   1738      71                N/A     2/ 8
CASHES LEDGE BUO 1750   66 65  340/  4/  6 1017.6F   2/ 8
GEORGES BANK BUO 1750   70 72  290/  6/  6 1017.7F   3/10
$$

.............KEY..............
   WCI - WIND CHILL
   TC  - TEMPERATURE IN CELSIUS
   VSB - VISIBILITY IN MILES
   HX  - HEAT INDEX
   FAIR- INDICATES FEW OR NO CLOUDS BELOW 12,000 FT, WITH NO 
         SIGNIFICANT WEATHER AND/OR OBSTRUCTIONS TO VISIBILITY.